NOAA 16 DEB, 41405

Orbit data source: Space-Track

NOAA 16 DEB, 41405 is space debris in SSO originally from a launch on Thu, 21 Sep 2000 UTC launched from the Air Force Western Test Range (AFWTR). Debris objects in space refer to the collection of defunct objects orbiting the Earth. Examples of debris include non-operational satellites, rocket bodies, and fragments generated from explosions, collisions, or faulty payload assembly.

Loading next visibility...
Identifier
41405, 2000-055KJ
Orbit
SSO
Country
Flag of USUS
Related business
Manufacturer
Unknown
Mission
Spacecraft
Bus & Motor
Unknown
Mass
Unknown
Launch date (UTC)
2000-09-21 (25 years ago)
Launch vehicle
Unknown
Launch site
Air Force Western Test Range (AFWTR)
Object type
Payload
Rocket body
Debris
Shape & HBR
Unknown shape, 0.1 m
Radar Cross Section
Small (<0.1 m²)

Expand to show TLE details & history
Last TLE update: 22 hours ago

TLE from 22 hours ago
0 NOAA 16 DEB
1 41405U 00055KJ  26037.30135189  .00026903  00000-0  60584-2 0  9997
2 41405  98.8555 169.8500 0006272  10.5991 349.5336 14.56321110516398
Epoch: 2026-02-06T07:13Z
TLE epoch observation values (Epoch: 2026-02-06T07:13:56.803Z)
Latitude
-0.00002°
Longitude
-75.07787°
Altitude
703.668 km
Speed
7.506 km/s
True Right ascension
11h 19m 24s
True Declination
0° 00' 00"
Sunlit
Object was in full shadow at epoch
Visualization orbit readout
Latitude
Unknown
Longitude
Unknown
Altitude
Unknown
Speed
Unknown
Apparent Right ascension
Unknown
Apparent Declination
Unknown
Sunlit
N/A
Visualization observer readout
Local Sidereal Time
07:25:05
Azimuth
Unknown
Elevation
Unknown
Doppler factor
Unknown
Orbital elements
Apogee altitude
706.636 km
Perigee altitude
697.754 km
Semi-major axis
7,080.332 km
Eccentricity
0.00063
Inclination
98.8555°
RAAN
169.85°
Arg. of periapsis
10.5991°
True anomaly
349.52053°
Mean anomaly
349.5336°
Eccentric anomaly
349.52707°
Mean motion
3.64303 °/min
Orbital period
98.82 mins
BSTAR
0.0060584
Loading maneuver chart data...
Computing Atmospheric mass density...
Loading historical data...
Loading historical data...
Loading historical data...
Loading historical data...
Loading historical data...
Loading historical data...
Loading historical data...

Documentation

Showing up to 5 results
|